Time,TemperatureF,DewpointF,PressureIn,WindDirection,WindDirectionDegrees,WindSpeedMPH,WindSpeedGustMPH,Humidity,HourlyPrecipIn,Conditions,Clouds,dailyrainin,SoftwareType,DateUTC
2013-01-02 00:01:00,50.1,44.5,30.09,NNW,348,8.2,14.2,81,0.00,,---,0.06,VWS V14.01,2013-01-02 06:01:00,
2013-01-02 00:06:00,49.9,44.3,30.09,NNE,14,13.2,16.2,81,0.00,,---,0.00,VWS V14.01,2013-01-02 06:06:00,
2013-01-02 00:11:00,49.9,44.0,30.09,North,5,11.2,17.2,80,0.00,,---,0.00,VWS V14.01,2013-01-02 06:11:00,
2013-01-02 00:16:00,49.9,44.3,30.09,North,355,12.2,15.2,81,0.00,,---,0.00,VWS V14.01,2013-01-02 06:16:00,
2013-01-02 00:21:00,49.9,44.3,30.09,North,355,6.2,18.2,81,0.00,,---,0.00,VWS V14.01,2013-01-02 06:21:00,
2013-01-02 00:26:00,49.8,44.2,30.09,NNE,24,9.2,15.2,81,0.00,,---,0.00,VWS V14.01,2013-01-02 06:26:00,
2013-01-02 00:31:00,49.8,44.2,30.09,NNE,22,6.2,16.2,81,0.00,,---,0.00,VWS V14.01,2013-01-02 06:31:00,
2013-01-02 00:36:00,49.8,44.2,30.09,NNE,30,12.2,13.2,81,0.00,,---,0.00,VWS V14.01,2013-01-02 06:36:00,
2013-01-02 00:41:00,49.8,44.2,30.09,North,5,9.2,16.2,81,0.00,,---,0.00,VWS V14.01,2013-01-02 06:41:00,
2013-01-02 00:45:00,49.6,44.0,30.10,NNE,12,9.2,13.2,81,0.00,,---,0.00,VWS V14.01,2013-01-02 06:45:00,
2013-01-02 00:50:00,49.6,44.0,30.10,NE,48,13.2,13.2,81,0.00,,---,0.00,VWS V14.01,2013-01-02 06:50:00,
2013-01-02 00:55:00,49.6,44.0,30.10,NNE,19,10.2,14.2,81,0.00,,---,0.00,VWS V14.01,2013-01-02 06:55:00,
2013-01-02 01:00:00,49.6,44.0,30.11,NNE,15,4.2,12.2,81,0.00,,---,0.00,VWS V14.01,2013-01-02 07:00:00,
2013-01-02 01:05:00,49.6,44.3,30.11,North,360,4.2,11.2,82,0.00,,---,0.00,VWS V14.01,2013-01-02 07:05:00,
2013-01-02 01:10:00,49.6,44.3,30.11,North,360,8.2,11.2,82,0.00,,---,0.00,VWS V14.01,2013-01-02 07:10:00,
2013-01-02 01:15:00,49.6,44.3,30.11,NE,34,10.2,13.2,82,0.00,,---,0.00,VWS V14.01,2013-01-02 07:15:00,
2013-01-02 01:20:00,49.6,45.0,30.11,NE,46,11.2,14.2,84,0.00,,---,0.00,VWS V14.01,2013-01-02 07:20:00,
2013-01-02 01:25:00,49.6,44.0,30.11,North,5,8.2,14.2,81,0.00,,---,0.00,VWS V14.01,2013-01-02 07:25:00,
2013-01-02 01:30:00,49.6,44.0,30.11,NNE,15,10.2,15.2,81,0.00,,---,0.00,VWS V14.01,2013-01-02 07:30:00,
2013-01-02 01:35:00,49.6,44.3,30.11,NNE,13,4.2,12.2,82,0.00,,---,0.00,VWS V14.01,2013-01-02 07:35:00,
2013-01-02 01:40:00,49.5,44.2,30.11,NNE,20,3.2,11.2,82,0.00,,---,0.00,VWS V14.01,2013-01-02 07:40:00,
2013-01-02 01:45:00,49.5,44.2,30.11,North,11,6.2,13.2,82,0.00,,---,0.00,VWS V14.01,2013-01-02 07:45:00,
2013-01-02 01:50:00,49.5,44.2,30.11,North,5,5.2,12.2,82,0.00,,---,0.00,VWS V14.01,2013-01-02 07:50:00,
2013-01-02 01:56:00,49.5,44.6,30.11,North,355,3.2,11.2,83,0.00,,---,0.00,VWS V14.01,2013-01-02 07:56:00,
2013-01-02 02:01:00,49.4,44.5,30.13,NNW,342,8.2,12.2,83,0.00,,---,0.00,VWS V14.01,2013-01-02 08:01:00,
2013-01-02 02:06:00,49.2,44.0,30.13,North,355,12.2,13.2,82,0.00,,---,0.00,VWS V14.01,2013-01-02 08:06:00,
2013-01-02 02:11:00,49.1,43.5,30.13,North,5,12.2,14.2,81,0.00,,---,0.00,VWS V14.01,2013-01-02 08:11:00,
2013-01-02 02:16:00,48.9,43.0,30.13,NNE,16,7.2,16.2,80,0.00,,---,0.00,VWS V14.01,2013-01-02 08:16:00,
2013-01-02 02:21:00,48.9,43.0,30.13,NNW,347,9.2,15.2,80,0.00,,---,0.00,VWS V14.01,2013-01-02 08:21:00,
2013-01-02 02:26:00,48.9,43.0,30.13,NNE,19,6.2,16.2,80,0.00,,---,0.00,VWS V14.01,2013-01-02 08:26:00,
2013-01-02 02:31:00,48.9,43.0,30.13,NE,39,10.2,13.2,80,0.00,,---,0.00,VWS V14.01,2013-01-02 08:31:00,
2013-01-02 02:35:00,48.9,43.3,30.13,NNW,342,6.2,11.2,81,0.00,,---,0.00,VWS V14.01,2013-01-02 08:35:00,
2013-01-02 02:40:00,48.8,43.2,30.13,NNE,16,4.2,14.2,81,0.00,,---,0.00,VWS V14.01,2013-01-02 08:40:00,
2013-01-02 02:45:00,48.6,43.4,30.12,North,5,13.2,14.2,82,0.00,,---,0.00,VWS V14.01,2013-01-02 08:45:00,
2013-01-02 02:50:00,48.5,43.3,30.12,NE,48,4.2,14.2,82,0.00,,---,0.00,VWS V14.01,2013-01-02 08:50:00,
2013-01-02 02:56:00,48.3,42.8,30.12,North,5,8.2,14.2,81,0.00,,---,0.00,VWS V14.01,2013-01-02 08:56:00,
2013-01-02 03:01:00,48.3,42.8,30.13,North,5,8.2,15.2,81,0.00,,---,0.00,VWS V14.01,2013-01-02 09:01:00,
2013-01-02 03:06:00,48.3,42.4,30.13,North,5,6.2,14.2,80,0.00,,---,0.00,VWS V14.01,2013-01-02 09:06:00,
2013-01-02 03:11:00,48.2,42.3,30.13,North,355,14.2,16.2,80,0.00,,---,0.00,VWS V14.01,2013-01-02 09:11:00,
2013-01-02 03:16:00,48.2,42.0,30.13,NNW,347,11.2,15.2,79,0.00,,---,0.00,VWS V14.01,2013-01-02 09:16:00,
2013-01-02 03:21:00,48.2,42.0,30.13,North,11,10.2,19.2,79,0.00,,---,0.00,VWS V14.01,2013-01-02 09:21:00,
2013-01-02 03:26:00,48.2,42.0,30.13,NNE,24,6.2,17.2,79,0.00,,---,0.00,VWS V14.01,2013-01-02 09:26:00,
2013-01-02 03:31:00,48.2,42.0,30.13,NNE,18,4.2,13.2,79,0.00,,---,0.00,VWS V14.01,2013-01-02 09:31:00,
2013-01-02 03:35:00,48.2,42.0,30.13,North,355,12.2,15.2,79,0.00,,---,0.00,VWS V14.01,2013-01-02 09:35:00,
2013-01-02 03:40:00,48.0,41.8,30.13,North,355,5.2,14.2,79,0.00,,---,0.00,VWS V14.01,2013-01-02 09:40:00,
2013-01-02 03:45:00,48.0,41.8,30.12,NNW,338,9.2,15.2,79,0.00,,---,0.00,VWS V14.01,2013-01-02 09:45:00,
2013-01-02 03:50:00,47.9,41.7,30.12,North,360,7.2,14.2,79,0.00,,---,0.00,VWS V14.01,2013-01-02 09:50:00,
2013-01-02 03:56:00,47.9,41.7,30.12,NNW,330,8.2,15.2,79,0.00,,---,0.00,VWS V14.01,2013-01-02 09:56:00,
2013-01-02 04:01:00,47.7,41.5,30.13,NNE,28,11.2,16.2,79,0.00,,---,0.00,VWS V14.01,2013-01-02 10:01:00,
2013-01-02 04:06:00,47.7,41.5,30.13,NNE,15,7.2,15.2,79,0.00,,---,0.00,VWS V14.01,2013-01-02 10:06:00,
2013-01-02 04:11:00,47.7,41.8,30.13,NNE,26,8.2,14.2,80,0.00,,---,0.00,VWS V14.01,2013-01-02 10:11:00,
2013-01-02 04:16:00,47.7,41.5,30.14,NE,37,5.2,12.2,79,0.00,,---,0.00,VWS V14.01,2013-01-02 10:16:00,
2013-01-02 04:20:00,47.6,41.4,30.14,NNE,26,7.2,14.2,79,0.00,,---,0.00,VWS V14.01,2013-01-02 10:20:00,
2013-01-02 04:25:00,47.6,41.1,30.14,NNE,32,9.2,15.2,78,0.00,,---,0.00,VWS V14.01,2013-01-02 10:25:00,
2013-01-02 04:30:00,47.6,41.1,30.13,NNE,28,6.2,13.2,78,0.00,,---,0.00,VWS V14.01,2013-01-02 10:30:00,
2013-01-02 04:35:00,47.4,41.2,30.13,North,360,6.2,14.2,79,0.00,,---,0.00,VWS V14.01,2013-01-02 10:35:00,
2013-01-02 04:40:00,47.3,41.5,30.13,NNE,19,8.2,15.2,80,0.00,,---,0.00,VWS V14.01,2013-01-02 10:40:00,
2013-01-02 04:45:00,47.0,41.5,30.13,NNE,29,7.2,14.2,81,0.00,,---,0.00,VWS V14.01,2013-01-02 10:45:00,
2013-01-02 04:50:00,46.8,41.3,30.13,NE,53,5.2,10.2,81,0.00,,---,0.00,VWS V14.01,2013-01-02 10:50:00,
2013-01-02 04:55:00,47.0,41.8,30.13,North,11,6.2,12.2,82,0.00,,---,0.00,VWS V14.01,2013-01-02 10:55:00,
2013-01-02 05:00:00,47.0,42.1,30.15,NNW,344,6.2,13.2,83,0.00,,---,0.00,VWS V14.01,2013-01-02 11:00:00,
2013-01-02 05:05:00,46.8,41.9,30.15,NE,36,5.2,14.2,83,0.00,,---,0.00,VWS V14.01,2013-01-02 11:05:00,
2013-01-02 05:10:00,46.7,41.8,30.15,NW,319,6.2,10.2,83,0.00,,---,0.00,VWS V14.01,2013-01-02 11:10:00,
2013-01-02 05:15:00,46.4,40.6,30.16,NNW,347,10.2,17.2,80,0.00,,---,0.00,VWS V14.01,2013-01-02 11:15:00,
2013-01-02 05:20:00,46.4,40.2,30.16,NNE,12,6.2,13.2,79,0.00,,---,0.00,VWS V14.01,2013-01-02 11:20:00,
2013-01-02 05:25:00,46.5,40.0,30.16,North,5,11.2,15.2,78,0.00,,---,0.00,VWS V14.01,2013-01-02 11:25:00,
2013-01-02 05:30:00,46.5,40.0,30.16,NNW,340,6.2,17.2,78,0.00,,---,0.00,VWS V14.01,2013-01-02 11:30:00,
2013-01-02 05:35:00,46.4,39.9,30.16,North,349,6.2,12.2,78,0.00,,---,0.00,VWS V14.01,2013-01-02 11:35:00,
2013-01-02 05:40:00,46.4,39.6,30.16,North,5,6.2,14.2,77,0.00,,---,0.00,VWS V14.01,2013-01-02 11:40:00,
2013-01-02 05:45:00,46.2,39.7,30.16,North,11,7.2,11.2,78,0.00,,---,0.00,VWS V14.01,2013-01-02 11:45:00,
2013-01-02 05:50:00,46.2,39.7,30.16,NNE,29,12.2,14.2,78,0.00,,---,0.00,VWS V14.01,2013-01-02 11:50:00,
2013-01-02 05:55:00,46.0,38.5,30.16,North,360,9.2,18.2,75,0.00,,---,0.00,VWS V14.01,2013-01-02 11:55:00,
2013-01-02 06:00:00,45.8,38.0,30.15,North,11,12.2,18.2,74,0.00,,---,0.00,VWS V14.01,2013-01-02 12:00:00,
2013-01-02 06:05:00,45.8,38.0,30.15,NNE,17,9.2,16.2,74,0.00,,---,0.00,VWS V14.01,2013-01-02 12:05:00,
2013-01-02 06:10:00,46.0,38.9,30.15,NE,55,12.2,15.2,76,0.00,,---,0.00,VWS V14.01,2013-01-02 12:10:00,
2013-01-02 06:15:00,45.7,38.9,30.15,NNE,18,7.2,15.2,77,0.00,,---,0.00,VWS V14.01,2013-01-02 12:15:00,
2013-01-02 06:20:00,45.7,39.2,30.15,NE,36,8.2,11.2,78,0.00,,---,0.00,VWS V14.01,2013-01-02 12:20:00,
2013-01-02 06:25:00,45.5,39.4,30.15,North,360,4.2,10.2,79,0.00,,---,0.00,VWS V14.01,2013-01-02 12:25:00,
2013-01-02 06:30:00,45.5,40.0,30.16,North,5,5.2,13.2,81,0.00,,---,0.00,VWS V14.01,2013-01-02 12:30:00,
2013-01-02 06:35:00,45.4,39.6,30.16,North,0,8.2,16.2,80,0.00,,---,0.00,VWS V14.01,2013-01-02 12:35:00,
2013-01-02 06:40:00,45.1,39.0,30.16,North,0,8.2,16.2,79,0.00,,---,0.00,VWS V14.01,2013-01-02 12:40:00,
2013-01-02 06:45:00,45.1,38.7,30.17,North,0,9.2,14.2,78,0.00,,---,0.00,VWS V14.01,2013-01-02 12:45:00,
2013-01-02 06:50:00,45.1,38.7,30.17,NNE,22,8.2,13.2,78,0.00,,---,0.00,VWS V14.01,2013-01-02 12:50:00,
2013-01-02 06:55:00,44.9,38.8,30.17,NNE,22,6.2,11.2,79,0.00,,---,0.00,VWS V14.01,2013-01-02 12:55:00,
2013-01-02 07:00:00,44.9,39.1,30.17,North,0,6.2,12.2,80,0.00,,---,0.00,VWS V14.01,2013-01-02 13:00:00,
2013-01-02 07:05:00,44.8,38.7,30.17,North,0,8.2,14.2,79,0.01,,---,0.01,VWS V14.01,2013-01-02 13:05:00,
2013-01-02 07:10:00,44.6,38.8,30.17,North,0,6.2,11.2,80,0.01,,---,0.01,VWS V14.01,2013-01-02 13:10:00,
2013-01-02 07:15:00,44.5,38.7,30.18,North,0,7.2,16.2,80,0.01,,---,0.01,VWS V14.01,2013-01-02 13:15:00,
2013-01-02 07:20:00,44.6,39.1,30.18,North,0,8.2,13.2,81,0.01,,---,0.01,VWS V14.01,2013-01-02 13:20:00,
2013-01-02 07:25:00,44.5,39.0,30.18,North,0,7.2,14.2,81,0.01,,---,0.01,VWS V14.01,2013-01-02 13:25:00,
2013-01-02 07:30:00,44.2,38.8,30.19,North,0,7.2,15.2,81,0.01,,---,0.01,VWS V14.01,2013-01-02 13:30:00,
2013-01-02 07:35:00,44.2,38.4,30.19,NNW,338,7.2,15.2,80,0.01,,---,0.01,VWS V14.01,2013-01-02 13:35:00,
2013-01-02 07:40:00,44.1,38.7,30.19,North,0,7.2,13.2,81,0.01,,---,0.01,VWS V14.01,2013-01-02 13:40:00,
2013-01-02 07:45:00,43.9,38.1,30.19,North,0,8.2,16.2,80,0.01,,---,0.01,VWS V14.01,2013-01-02 13:45:00,
2013-01-02 07:50:00,43.8,38.4,30.19,NNE,22,7.2,13.2,81,0.01,,---,0.01,VWS V14.01,2013-01-02 13:50:00,
2013-01-02 08:01:00,43.5,38.1,30.19,North,0,9.2,17.2,81,0.01,,---,0.01,VWS V14.01,2013-01-02 14:01:00,
2013-01-02 08:06:00,42.8,38.0,30.19,NNW,346,10.2,12.2,83,0.01,,---,0.02,VWS V14.01,2013-01-02 14:06:00,
2013-01-02 08:11:00,42.6,38.1,30.19,NNE,14,10.2,11.2,84,0.01,,---,0.02,VWS V14.01,2013-01-02 14:11:00,
2013-01-02 08:16:00,42.6,38.1,30.19,NNW,339,13.2,18.2,84,0.01,,---,0.02,VWS V14.01,2013-01-02 14:16:00,
2013-01-02 08:21:00,42.6,38.4,30.19,North,360,10.2,10.2,85,0.01,,---,0.02,VWS V14.01,2013-01-02 14:21:00,
2013-01-02 08:26:00,42.6,38.4,30.19,NNE,25,5.2,15.2,85,0.01,,---,0.02,VWS V14.01,2013-01-02 14:26:00,
2013-01-02 08:31:00,42.5,38.3,30.20,North,355,3.2,5.2,85,0.01,,---,0.02,VWS V14.01,2013-01-02 14:31:00,
2013-01-02 08:36:00,42.5,38.3,30.20,NNE,19,14.2,15.2,85,0.01,,---,0.02,VWS V14.01,2013-01-02 14:36:00,
2013-01-02 08:41:00,42.3,38.4,30.20,NNE,19,6.2,11.2,86,0.01,,---,0.02,VWS V14.01,2013-01-02 14:41:00,
2013-01-02 08:46:00,42.3,38.4,30.21,North,349,7.2,7.2,86,0.02,,---,0.03,VWS V14.01,2013-01-02 14:46:00,
2013-01-02 08:51:00,42.3,38.4,30.21,North,355,10.2,10.2,86,0.02,,---,0.03,VWS V14.01,2013-01-02 14:51:00,
2013-01-02 08:56:00,42.2,38.3,30.21,NNE,30,5.2,7.2,86,0.02,,---,0.03,VWS V14.01,2013-01-02 14:56:00,
2013-01-02 09:01:00,42.2,38.3,30.22,North,11,8.2,9.2,86,0.02,,---,0.03,VWS V14.01,2013-01-02 15:01:00,
2013-01-02 09:06:00,42.1,38.2,30.22,NE,44,7.2,7.2,86,0.01,,---,0.03,VWS V14.01,2013-01-02 15:06:00,
2013-01-02 09:11:00,42.1,38.2,30.22,NNE,13,6.2,8.2,86,0.02,,---,0.04,VWS V14.01,2013-01-02 15:11:00,
2013-01-02 09:16:00,41.9,38.0,30.23,North,351,7.2,8.2,86,0.02,,---,0.04,VWS V14.01,2013-01-02 15:16:00,
2013-01-02 09:21:00,41.9,38.3,30.23,NNW,340,6.2,8.2,87,0.02,,---,0.04,VWS V14.01,2013-01-02 15:21:00,
2013-01-02 09:26:00,41.9,38.3,30.23,NNE,13,3.2,4.2,87,0.02,,---,0.04,VWS V14.01,2013-01-02 15:26:00,
2013-01-02 09:31:00,41.8,38.2,30.23,NW,320,10.2,11.2,87,0.02,,---,0.04,VWS V14.01,2013-01-02 15:31:00,
2013-01-02 09:36:00,41.8,38.2,30.23,NNW,334,9.2,13.2,87,0.03,,---,0.05,VWS V14.01,2013-01-02 15:36:00,
2013-01-02 09:41:00,41.8,38.2,30.23,North,355,6.2,8.2,87,0.03,,---,0.05,VWS V14.01,2013-01-02 15:41:00,
2013-01-02 09:46:00,41.6,38.0,30.24,NNE,32,6.2,6.2,87,0.02,,---,0.05,VWS V14.01,2013-01-02 15:46:00,
2013-01-02 09:51:00,41.8,38.2,30.24,North,5,9.2,9.2,87,0.03,,---,0.06,VWS V14.01,2013-01-02 15:51:00,
2013-01-02 09:56:00,41.9,38.3,30.24,NNW,348,4.2,4.2,87,0.03,,---,0.06,VWS V14.01,2013-01-02 15:56:00,
2013-01-02 10:01:00,42.1,38.8,30.25,NNW,343,5.2,5.2,88,0.03,,---,0.06,VWS V14.01,2013-01-02 16:01:00,
2013-01-02 10:06:00,42.2,38.9,30.25,North,9,8.2,8.2,88,0.03,,---,0.06,VWS V14.01,2013-01-02 16:06:00,
2013-01-02 10:11:00,42.2,38.9,30.25,North,355,8.2,10.2,88,0.03,,---,0.06,VWS V14.01,2013-01-02 16:11:00,
2013-01-02 10:16:00,42.2,38.9,30.25,NNE,12,12.2,14.2,88,0.02,,---,0.06,VWS V14.01,2013-01-02 16:16:00,
2013-01-02 10:21:00,41.9,38.6,30.25,North,355,6.2,9.2,88,0.02,,---,0.06,VWS V14.01,2013-01-02 16:21:00,
2013-01-02 10:26:00,42.1,38.5,30.25,NNW,337,4.2,12.2,87,0.02,,---,0.06,VWS V14.01,2013-01-02 16:26:00,
2013-01-02 10:31:00,42.1,38.8,30.24,NNE,18,5.2,6.2,88,0.03,,---,0.07,VWS V14.01,2013-01-02 16:31:00,
2013-01-02 10:36:00,42.1,38.8,30.24,North,9,5.2,7.2,88,0.02,,---,0.07,VWS V14.01,2013-01-02 16:36:00,
2013-01-02 10:41:00,41.9,38.3,30.24,North,355,7.2,12.2,87,0.02,,---,0.07,VWS V14.01,2013-01-02 16:41:00,
2013-01-02 10:46:00,42.1,38.8,30.24,North,9,5.2,10.2,88,0.02,,---,0.07,VWS V14.01,2013-01-02 16:46:00,
2013-01-02 10:51:00,42.1,38.8,30.24,NW,325,7.2,8.2,88,0.01,,---,0.07,VWS V14.01,2013-01-02 16:51:00,
2013-01-02 10:56:00,42.2,38.9,30.24,NNW,337,2.2,3.2,88,0.01,,---,0.07,VWS V14.01,2013-01-02 16:56:00,
2013-01-02 11:01:00,42.2,38.9,30.24,North,355,4.2,5.2,88,0.01,,---,0.07,VWS V14.01,2013-01-02 17:01:00,
2013-01-02 11:06:00,42.2,38.9,30.24,NNE,18,6.2,7.2,88,0.01,,---,0.07,VWS V14.01,2013-01-02 17:06:00,
2013-01-02 11:14:00,42.1,39.1,30.24,North,360,4.2,4.2,89,0.01,,---,0.07,VWS V14.01,2013-01-02 17:14:00,
2013-01-02 11:19:00,42.2,39.5,30.24,North,9,5.2,8.2,90,0.01,,---,0.07,VWS V14.01,2013-01-02 17:19:00,
2013-01-02 11:24:00,42.2,39.5,30.24,North,5,5.2,11.2,90,0.02,,---,0.08,VWS V14.01,2013-01-02 17:24:00,
2013-01-02 11:29:00,41.9,39.2,30.24,NNE,17,4.2,11.2,90,0.02,,---,0.08,VWS V14.01,2013-01-02 17:29:00,
2013-01-02 11:34:00,41.9,39.2,30.23,North,355,5.2,11.2,90,0.01,,---,0.08,VWS V14.01,2013-01-02 17:34:00,
2013-01-02 11:39:00,41.9,39.5,30.23,North,5,5.2,7.2,91,0.01,,---,0.08,VWS V14.01,2013-01-02 17:39:00,
2013-01-02 11:44:00,41.9,39.5,30.23,North,349,4.2,6.2,91,0.01,,---,0.08,VWS V14.01,2013-01-02 17:44:00,
2013-01-02 11:49:00,42.1,39.7,30.23,North,355,4.2,9.2,91,0.01,,---,0.08,VWS V14.01,2013-01-02 17:49:00,
2013-01-02 11:54:00,42.1,39.7,30.23,North,360,4.2,7.2,91,0.01,,---,0.08,VWS V14.01,2013-01-02 17:54:00,
2013-01-02 11:59:00,42.2,40.0,30.23,NNE,20,7.2,8.2,92,0.02,,---,0.09,VWS V14.01,2013-01-02 17:59:00,
2013-01-02 12:04:00,42.1,40.0,30.23,North,360,2.2,8.2,92,0.02,,---,0.09,VWS V14.01,2013-01-02 18:04:00,
2013-01-02 12:09:00,42.1,40.0,30.23,NNW,348,3.2,7.2,92,0.02,,---,0.09,VWS V14.01,2013-01-02 18:09:00,
2013-01-02 12:14:00,42.2,40.0,30.23,NW,324,7.2,7.2,92,0.02,,---,0.09,VWS V14.01,2013-01-02 18:14:00,
2013-01-02 12:15:00,42.1,40.0,30.22,North,0,5.2,8.2,92,0.02,,---,0.09,VWS V14.01,2013-01-02 18:15:00,
2013-01-02 12:20:00,42.1,40.0,30.22,NNW,338,4.2,7.2,92,0.03,,---,0.10,VWS V14.01,2013-01-02 18:20:00,
2013-01-02 12:25:00,41.9,39.8,30.22,NNW,338,5.2,10.2,92,0.02,,---,0.10,VWS V14.01,2013-01-02 18:25:00,
2013-01-02 12:30:00,41.8,39.7,30.21,North,0,5.2,10.2,92,0.03,,---,0.11,VWS V14.01,2013-01-02 18:30:00,
2013-01-02 12:35:00,41.9,39.8,30.21,NNW,338,5.2,11.2,92,0.03,,---,0.11,VWS V14.01,2013-01-02 18:35:00,
2013-01-02 12:40:00,41.9,39.8,30.21,North,0,5.2,10.2,92,0.03,,---,0.11,VWS V14.01,2013-01-02 18:40:00,
2013-01-02 12:45:00,41.9,39.8,30.21,NNW,338,5.2,10.2,92,0.04,,---,0.12,VWS V14.01,2013-01-02 18:45:00,
2013-01-02 12:50:00,42.1,40.0,30.21,North,0,3.2,7.2,92,0.04,,---,0.12,VWS V14.01,2013-01-02 18:50:00,
2013-01-02 12:55:00,42.2,40.0,30.21,North,0,4.2,8.2,92,0.04,,---,0.12,VWS V14.01,2013-01-02 18:55:00,
2013-01-02 13:00:00,42.3,40.4,30.20,North,0,4.2,7.2,93,0.04,,---,0.12,VWS V14.01,2013-01-02 19:00:00,
2013-01-02 13:05:00,42.5,40.3,30.20,North,0,4.2,9.2,92,0.04,,---,0.13,VWS V14.01,2013-01-02 19:05:00,
2013-01-02 13:10:00,42.2,40.0,30.20,North,0,5.2,10.2,92,0.04,,---,0.13,VWS V14.01,2013-01-02 19:10:00,
2013-01-02 13:15:00,42.1,40.0,30.19,NNW,338,5.2,11.2,92,0.04,,---,0.13,VWS V14.01,2013-01-02 19:15:00,
2013-01-02 13:20:00,41.9,39.8,30.19,North,0,6.2,13.2,92,0.04,,---,0.13,VWS V14.01,2013-01-02 19:20:00,
2013-01-02 13:31:00,42.1,40.0,30.19,NNW,338,6.2,10.2,92,0.03,,---,0.13,VWS V14.01,2013-01-02 19:31:00,
2013-01-02 13:36:00,41.8,39.7,30.18,North,360,6.2,14.2,92,0.03,,---,0.14,VWS V14.01,2013-01-02 19:36:00,
2013-01-02 13:41:00,41.8,39.7,30.18,North,355,6.2,10.2,92,0.03,,---,0.14,VWS V14.01,2013-01-02 19:41:00,
2013-01-02 13:46:00,41.9,39.8,30.17,NW,321,4.2,12.2,92,0.03,,---,0.14,VWS V14.01,2013-01-02 19:46:00,
2013-01-02 13:51:00,41.9,39.8,30.17,North,355,7.2,12.2,92,0.02,,---,0.14,VWS V14.01,2013-01-02 19:51:00,
2013-01-02 13:56:00,41.8,39.7,30.17,North,355,3.2,12.2,92,0.02,,---,0.14,VWS V14.01,2013-01-02 19:56:00,
2013-01-02 14:01:00,41.8,39.7,30.16,North,5,7.2,13.2,92,0.03,,---,0.15,VWS V14.01,2013-01-02 20:01:00,
2013-01-02 14:06:00,41.6,39.5,30.16,North,10,3.2,11.2,92,0.03,,---,0.15,VWS V14.01,2013-01-02 20:06:00,
2013-01-02 14:11:00,41.6,39.5,30.16,NNW,347,3.2,12.2,92,0.03,,---,0.16,VWS V14.01,2013-01-02 20:11:00,
2013-01-02 14:16:00,41.8,39.9,30.16,NW,309,5.2,10.2,93,0.03,,---,0.16,VWS V14.01,2013-01-02 20:16:00,
2013-01-02 14:21:00,41.6,39.7,30.16,NNE,17,6.2,12.2,93,0.03,,---,0.16,VWS V14.01,2013-01-02 20:21:00,
2013-01-02 14:26:00,41.6,39.7,30.16,North,5,5.2,13.2,93,0.03,,---,0.16,VWS V14.01,2013-01-02 20:26:00,
2013-01-02 14:31:00,41.8,39.9,30.15,North,9,4.2,11.2,93,0.04,,---,0.17,VWS V14.01,2013-01-02 20:31:00,
2013-01-02 14:36:00,41.8,39.9,30.15,North,9,5.2,12.2,93,0.03,,---,0.17,VWS V14.01,2013-01-02 20:36:00,
2013-01-02 14:41:00,41.8,39.9,30.15,North,355,3.2,13.2,93,0.03,,---,0.17,VWS V14.01,2013-01-02 20:41:00,
2013-01-02 14:46:00,41.8,39.9,30.15,North,5,5.2,16.2,93,0.04,,---,0.18,VWS V14.01,2013-01-02 20:46:00,
2013-01-02 14:51:00,41.8,40.2,30.15,North,360,10.2,12.2,94,0.04,,---,0.18,VWS V14.01,2013-01-02 20:51:00,
2013-01-02 14:56:00,41.9,40.3,30.15,North,355,2.2,12.2,94,0.04,,---,0.18,VWS V14.01,2013-01-02 20:56:00,
2013-01-02 15:01:00,41.9,40.3,30.15,North,9,7.2,12.2,94,0.05,,---,0.19,VWS V14.01,2013-01-02 21:01:00,
2013-01-02 15:06:00,41.9,40.3,30.15,North,360,10.2,10.2,94,0.04,,---,0.19,VWS V14.01,2013-01-02 21:06:00,
2013-01-02 15:11:00,41.9,40.3,30.15,North,9,6.2,14.2,94,0.04,,---,0.19,VWS V14.01,2013-01-02 21:11:00,
2013-01-02 15:16:00,41.9,40.3,30.15,NNW,345,6.2,11.2,94,0.04,,---,0.20,VWS V14.01,2013-01-02 21:16:00,
2013-01-02 15:21:00,41.9,40.3,30.15,NW,325,6.2,12.2,94,0.04,,---,0.20,VWS V14.01,2013-01-02 21:21:00,
2013-01-02 15:26:00,42.1,40.5,30.15,NNW,340,6.2,12.2,94,0.04,,---,0.20,VWS V14.01,2013-01-02 21:26:00,
2013-01-02 15:31:00,42.1,40.5,30.15,North,10,6.2,11.2,94,0.05,,---,0.21,VWS V14.01,2013-01-02 21:31:00,
2013-01-02 15:36:00,42.2,40.9,30.15,North,11,5.2,11.2,95,0.04,,---,0.21,VWS V14.01,2013-01-02 21:36:00,
2013-01-02 15:41:00,42.2,40.9,30.15,NNW,344,5.2,12.2,95,0.05,,---,0.22,VWS V14.01,2013-01-02 21:41:00,
2013-01-02 15:46:00,42.2,40.9,30.15,North,5,12.2,12.2,95,0.05,,---,0.22,VWS V14.01,2013-01-02 21:46:00,
2013-01-02 15:51:00,42.2,40.9,30.15,North,355,11.2,14.2,95,0.04,,---,0.22,VWS V14.01,2013-01-02 21:51:00,
2013-01-02 15:56:00,42.2,40.9,30.15,NNE,26,3.2,11.2,95,0.04,,---,0.22,VWS V14.01,2013-01-02 21:56:00,
2013-01-02 16:01:00,42.3,41.0,30.15,North,5,10.2,12.2,95,0.04,,---,0.22,VWS V14.01,2013-01-02 22:01:00,
2013-01-02 16:06:00,42.2,40.9,30.15,North,360,7.2,13.2,95,0.04,,---,0.23,VWS V14.01,2013-01-02 22:06:00,
2013-01-02 16:11:00,42.3,41.0,30.15,NNW,341,8.2,10.2,95,0.04,,---,0.23,VWS V14.01,2013-01-02 22:11:00,
2013-01-02 16:16:00,42.2,40.9,30.16,North,5,3.2,12.2,95,0.04,,---,0.23,VWS V14.01,2013-01-02 22:16:00,
2013-01-02 16:21:00,42.1,40.8,30.16,NNW,339,5.2,13.2,95,0.03,,---,0.23,VWS V14.01,2013-01-02 22:21:00,
2013-01-02 16:26:00,42.1,40.8,30.16,North,10,9.2,13.2,95,0.03,,---,0.23,VWS V14.01,2013-01-02 22:26:00,
2013-01-02 16:31:00,42.2,40.9,30.16,North,5,8.2,12.2,95,0.04,,---,0.24,VWS V14.01,2013-01-02 22:31:00,
2013-01-02 16:36:00,42.1,40.8,30.16,North,355,6.2,14.2,95,0.03,,---,0.24,VWS V14.01,2013-01-02 22:36:00,
2013-01-02 16:41:00,41.9,40.6,30.16,North,5,7.2,15.2,95,0.03,,---,0.24,VWS V14.01,2013-01-02 22:41:00,
2013-01-02 16:46:00,41.8,40.5,30.17,NNE,18,10.2,13.2,95,0.02,,---,0.24,VWS V14.01,2013-01-02 22:46:00,
2013-01-02 16:51:00,41.9,40.6,30.17,NNW,334,4.2,12.2,95,0.02,,---,0.24,VWS V14.01,2013-01-02 22:51:00,
2013-01-02 16:56:00,41.6,40.3,30.17,North,10,11.2,15.2,95,0.03,,---,0.25,VWS V14.01,2013-01-02 22:56:00,
2013-01-02 17:01:00,41.5,40.2,30.18,North,355,5.2,13.2,95,0.03,,---,0.25,VWS V14.01,2013-01-02 23:01:00,
2013-01-02 17:05:00,41.5,40.2,30.18,North,355,4.2,12.2,95,0.03,,---,0.25,VWS V14.01,2013-01-02 23:05:00,
2013-01-02 17:10:00,41.5,39.9,30.18,NNW,347,7.2,10.2,94,0.02,,---,0.25,VWS V14.01,2013-01-02 23:10:00,
2013-01-02 17:15:00,41.3,39.7,30.18,North,5,8.2,11.2,94,0.03,,---,0.26,VWS V14.01,2013-01-02 23:15:00,
2013-01-02 17:20:00,41.3,39.7,30.18,North,355,6.2,13.2,94,0.03,,---,0.26,VWS V14.01,2013-01-02 23:20:00,
2013-01-02 17:25:00,41.3,39.7,30.18,North,360,5.2,12.2,94,0.04,,---,0.27,VWS V14.01,2013-01-02 23:25:00,
2013-01-02 17:30:00,41.3,39.7,30.18,NNW,348,5.2,10.2,94,0.04,,---,0.27,VWS V14.01,2013-01-02 23:30:00,
2013-01-02 17:35:00,41.5,39.9,30.18,North,360,5.2,8.2,94,0.03,,---,0.27,VWS V14.01,2013-01-02 23:35:00,
2013-01-02 17:40:00,41.5,39.9,30.18,North,5,5.2,12.2,94,0.03,,---,0.27,VWS V14.01,2013-01-02 23:40:00,
2013-01-02 17:45:00,41.3,39.7,30.19,North,355,4.2,10.2,94,0.03,,---,0.27,VWS V14.01,2013-01-02 23:45:00,
2013-01-02 17:50:00,41.3,39.7,30.19,North,360,5.2,11.2,94,0.03,,---,0.27,VWS V14.01,2013-01-02 23:50:00,
2013-01-02 17:55:00,41.5,39.9,30.19,North,11,5.2,11.2,94,0.04,,---,0.28,VWS V14.01,2013-01-02 23:55:00,
2013-01-02 18:00:00,41.5,39.9,30.19,North,351,4.2,10.2,94,0.03,,---,0.28,VWS V14.01,2013-01-03 00:00:00,
2013-01-02 18:05:00,41.5,39.9,30.19,NW,315,5.2,10.2,94,0.03,,---,0.28,VWS V14.01,2013-01-03 00:05:00,
2013-01-02 18:10:00,41.6,40.0,30.19,North,5,2.2,10.2,94,0.03,,---,0.28,VWS V14.01,2013-01-03 00:10:00,
2013-01-02 18:15:00,41.6,40.0,30.20,North,355,7.2,7.2,94,0.03,,---,0.28,VWS V14.01,2013-01-03 00:15:00,
2013-01-02 18:20:00,41.6,40.0,30.20,North,11,2.2,7.2,94,0.03,,---,0.29,VWS V14.01,2013-01-03 00:20:00,
2013-01-02 18:25:00,41.8,40.2,30.20,North,355,3.2,8.2,94,0.03,,---,0.29,VWS V14.01,2013-01-03 00:25:00,
2013-01-02 18:30:00,41.6,40.0,30.21,NNW,345,5.2,11.2,94,0.03,,---,0.30,VWS V14.01,2013-01-03 00:30:00,
2013-01-02 18:36:00,41.6,40.0,30.21,North,355,6.2,10.2,94,0.03,,---,0.30,VWS V14.01,2013-01-03 00:36:00,
2013-01-02 18:41:00,41.8,40.2,30.21,North,355,7.2,11.2,94,0.03,,---,0.30,VWS V14.01,2013-01-03 00:41:00,
2013-01-02 18:46:00,41.8,40.2,30.21,North,349,6.2,12.2,94,0.04,,---,0.31,VWS V14.01,2013-01-03 00:46:00,
2013-01-02 18:51:00,41.6,40.0,30.21,North,360,7.2,11.2,94,0.05,,---,0.32,VWS V14.01,2013-01-03 00:51:00,
2013-01-02 18:56:00,41.6,40.0,30.21,North,355,6.2,8.2,94,0.04,,---,0.32,VWS V14.01,2013-01-03 00:56:00,
2013-01-02 19:01:00,41.5,39.9,30.21,North,5,6.2,13.2,94,0.04,,---,0.32,VWS V14.01,2013-01-03 01:01:00,
2013-01-02 19:06:00,41.3,39.7,30.21,North,5,4.2,10.2,94,0.04,,---,0.32,VWS V14.01,2013-01-03 01:06:00,
2013-01-02 19:11:00,41.3,39.7,30.21,North,360,7.2,11.2,94,0.05,,---,0.33,VWS V14.01,2013-01-03 01:11:00,
2013-01-02 19:16:00,41.3,39.7,30.21,North,5,4.2,9.2,94,0.05,,---,0.33,VWS V14.01,2013-01-03 01:16:00,
2013-01-02 19:21:00,41.2,39.6,30.21,North,5,4.2,12.2,94,0.04,,---,0.33,VWS V14.01,2013-01-03 01:21:00,
2013-01-02 19:26:00,41.3,39.7,30.21,NNE,21,6.2,12.2,94,0.05,,---,0.34,VWS V14.01,2013-01-03 01:26:00,
2013-01-02 19:31:00,41.2,39.6,30.21,NNE,30,4.2,13.2,94,0.05,,---,0.34,VWS V14.01,2013-01-03 01:31:00,
2013-01-02 19:36:00,41.2,39.6,30.21,NNE,33,6.2,6.2,94,0.05,,---,0.35,VWS V14.01,2013-01-03 01:36:00,
2013-01-02 19:41:00,41.2,39.3,30.21,NNE,17,4.2,12.2,93,0.05,,---,0.35,VWS V14.01,2013-01-03 01:41:00,
2013-01-02 19:46:00,41.1,39.2,30.21,North,360,10.2,13.2,93,0.05,,---,0.35,VWS V14.01,2013-01-03 01:46:00,
2013-01-02 19:51:00,41.2,39.3,30.21,NNE,14,5.2,10.2,93,0.05,,---,0.36,VWS V14.01,2013-01-03 01:51:00,
2013-01-02 19:56:00,41.1,39.2,30.21,NNE,31,6.2,13.2,93,0.04,,---,0.36,VWS V14.01,2013-01-03 01:56:00,
2013-01-02 20:01:00,41.1,39.0,30.21,NNE,33,7.2,14.2,92,0.04,,---,0.36,VWS V14.01,2013-01-03 02:01:00,
2013-01-02 20:06:00,40.9,38.8,30.21,North,355,6.2,13.2,92,0.04,,---,0.36,VWS V14.01,2013-01-03 02:06:00,
2013-01-02 20:11:00,40.9,38.8,30.21,North,360,6.2,13.2,92,0.04,,---,0.36,VWS V14.01,2013-01-03 02:11:00,
2013-01-02 20:15:00,41.1,39.0,30.22,North,360,6.2,12.2,92,0.03,,---,0.36,VWS V14.01,2013-01-03 02:15:00,
2013-01-02 20:20:00,41.1,39.0,30.22,NNE,19,8.2,12.2,92,0.04,,---,0.37,VWS V14.01,2013-01-03 02:20:00,
2013-01-02 20:25:00,41.1,39.0,30.22,NNE,15,4.2,12.2,92,0.04,,---,0.37,VWS V14.01,2013-01-03 02:25:00,
2013-01-02 20:30:00,41.2,39.1,30.22,NNE,13,8.2,10.2,92,0.03,,---,0.37,VWS V14.01,2013-01-03 02:30:00,
2013-01-02 20:36:00,41.2,39.1,30.22,NNE,13,12.2,15.2,92,0.03,,---,0.37,VWS V14.01,2013-01-03 02:36:00,
2013-01-02 20:41:00,41.3,39.2,30.22,North,355,5.2,12.2,92,0.02,,---,0.37,VWS V14.01,2013-01-03 02:41:00,
2013-01-02 20:45:00,41.3,39.2,30.22,NNE,17,3.2,9.2,92,0.02,,---,0.37,VWS V14.01,2013-01-03 02:45:00,
2013-01-02 20:50:00,41.5,39.3,30.22,NNE,28,4.2,13.2,92,0.02,,---,0.37,VWS V14.01,2013-01-03 02:50:00,
2013-01-02 20:55:00,41.6,39.5,30.22,NE,50,5.2,11.2,92,0.01,,---,0.37,VWS V14.01,2013-01-03 02:55:00,
2013-01-02 21:00:00,41.6,39.5,30.21,ENE,62,7.2,10.2,92,0.01,,---,0.37,VWS V14.01,2013-01-03 03:00:00,
2013-01-02 21:05:00,41.6,39.2,30.21,NE,40,8.2,11.2,91,0.01,,---,0.37,VWS V14.01,2013-01-03 03:05:00,
2013-01-02 21:10:00,41.6,39.2,30.21,NNE,20,4.2,12.2,91,0.01,,---,0.37,VWS V14.01,2013-01-03 03:10:00,
2013-01-02 21:15:00,41.8,39.4,30.23,NNE,19,5.2,6.2,91,0.01,,---,0.37,VWS V14.01,2013-01-03 03:15:00,
2013-01-02 21:20:00,41.8,39.4,30.23,NNE,20,1.2,7.2,91,0.01,,---,0.37,VWS V14.01,2013-01-03 03:20:00,
2013-01-02 21:25:00,41.9,39.5,30.23,North,349,3.2,9.2,91,0.00,,---,0.37,VWS V14.01,2013-01-03 03:25:00,
2013-01-02 21:30:00,41.9,39.5,30.23,North,5,4.2,10.2,91,0.00,,---,0.37,VWS V14.01,2013-01-03 03:30:00,
2013-01-02 21:36:00,41.9,39.5,30.23,North,5,4.2,6.2,91,0.00,,---,0.37,VWS V14.01,2013-01-03 03:36:00,
2013-01-02 21:41:00,42.1,39.7,30.23,North,5,4.2,6.2,91,0.00,,---,0.37,VWS V14.01,2013-01-03 03:41:00,
2013-01-02 21:46:00,42.1,39.7,30.23,North,355,6.2,9.2,91,0.00,,---,0.37,VWS V14.01,2013-01-03 03:46:00,
2013-01-02 21:51:00,42.1,39.7,30.23,North,355,4.2,10.2,91,0.00,,---,0.37,VWS V14.01,2013-01-03 03:51:00,
2013-01-02 21:56:00,41.9,39.2,30.23,North,11,7.2,12.2,90,0.00,,---,0.37,VWS V14.01,2013-01-03 03:56:00,
2013-01-02 22:01:00,41.9,39.2,30.23,NNW,341,4.2,10.2,90,0.00,,---,0.37,VWS V14.01,2013-01-03 04:01:00,
2013-01-02 22:06:00,41.9,38.9,30.23,NNE,33,6.2,13.2,89,0.00,,---,0.37,VWS V14.01,2013-01-03 04:06:00,
2013-01-02 22:11:00,42.1,39.1,30.23,NE,34,4.2,13.2,89,0.00,,---,0.37,VWS V14.01,2013-01-03 04:11:00,
2013-01-02 22:16:00,42.2,38.9,30.23,NNE,12,4.2,13.2,88,0.00,,---,0.37,VWS V14.01,2013-01-03 04:16:00,
2013-01-02 22:21:00,42.3,39.0,30.23,NNE,19,7.2,11.2,88,0.00,,---,0.37,VWS V14.01,2013-01-03 04:21:00,
2013-01-02 22:26:00,42.5,38.9,30.23,North,5,6.2,6.2,87,0.00,,---,0.37,VWS V14.01,2013-01-03 04:26:00,
2013-01-02 22:31:00,42.6,39.3,30.23,North,5,2.2,2.2,88,0.00,,---,0.37,VWS V14.01,2013-01-03 04:31:00,
2013-01-02 22:36:00,42.6,39.0,30.23,North,355,7.2,7.2,87,0.00,,---,0.37,VWS V14.01,2013-01-03 04:36:00,
2013-01-02 22:41:00,42.6,39.0,30.23,NNW,332,6.2,13.2,87,0.00,,---,0.37,VWS V14.01,2013-01-03 04:41:00,
2013-01-02 22:46:00,42.6,39.0,30.23,NNE,13,5.2,7.2,87,0.00,,---,0.37,VWS V14.01,2013-01-03 04:46:00,
2013-01-02 22:51:00,42.5,38.9,30.23,NNW,348,5.2,12.2,87,0.00,,---,0.37,VWS V14.01,2013-01-03 04:51:00,
2013-01-02 22:56:00,42.3,38.4,30.23,North,351,5.2,12.2,86,0.00,,---,0.37,VWS V14.01,2013-01-03 04:56:00,
2013-01-02 23:00:00,42.5,38.6,30.23,North,355,5.2,8.2,86,0.00,,---,0.37,VWS V14.01,2013-01-03 05:00:00,
2013-01-02 23:02:00,42.5,38.6,30.23,NNE,26,6.2,9.2,86,0.00,,---,0.37,VWS V14.01,2013-01-03 05:02:00,
2013-01-02 23:07:00,42.3,38.1,30.23,NNE,18,5.2,10.2,85,0.00,,---,0.37,VWS V14.01,2013-01-03 05:07:00,
2013-01-02 23:12:00,42.5,38.3,30.23,NW,315,3.2,9.2,85,0.00,,---,0.37,VWS V14.01,2013-01-03 05:12:00,
2013-01-02 23:17:00,42.5,38.3,30.23,North,355,6.2,10.2,85,0.00,,---,0.37,VWS V14.01,2013-01-03 05:17:00,
2013-01-02 23:22:00,42.6,38.4,30.23,NNE,18,4.2,7.2,85,0.00,,---,0.37,VWS V14.01,2013-01-03 05:22:00,
2013-01-02 23:27:00,42.6,38.1,30.23,NW,326,9.2,12.2,84,0.00,,---,0.37,VWS V14.01,2013-01-03 05:27:00,
2013-01-02 23:32:00,42.6,38.1,30.23,NE,36,5.2,8.2,84,0.00,,---,0.37,VWS V14.01,2013-01-03 05:32:00,
2013-01-02 23:37:00,42.6,38.1,30.23,NNW,348,7.2,8.2,84,0.00,,---,0.37,VWS V14.01,2013-01-03 05:37:00,
2013-01-02 23:42:00,42.8,38.3,30.23,NNE,13,9.2,9.2,84,0.00,,---,0.37,VWS V14.01,2013-01-03 05:42:00,
2013-01-02 23:47:00,42.8,38.0,30.22,NNE,23,5.2,7.2,83,0.00,,---,0.37,VWS V14.01,2013-01-03 05:47:00,
2013-01-02 23:52:00,42.9,38.1,30.22,North,5,5.2,8.2,83,0.00,,---,0.37,VWS V14.01,2013-01-03 05:52:00,
2013-01-02 23:57:00,42.9,37.8,30.22,NNE,24,3.2,7.2,82,0.00,,---,0.37,VWS V14.01,2013-01-03 05:57:00,